Time,TemperatureF,DewpointF,PressureIn,WindDirection,WindDirectionDegrees,WindSpeedMPH,WindSpeedGustMPH,Humidity,HourlyPrecipIn,Conditions,Clouds,dailyrainin,SoftwareType,DateUTC
2013-02-26 00:01:00,37.0,25.0,30.22,WSW,240,10.0,-999.0,60,-99.99,,,-99.99,,2013-02-26 08:01:00,
2013-02-26 00:11:00,37.0,25.0,30.22,WSW,240,10.0,-999.0,60,-99.99,,,-99.99,,2013-02-26 08:11:00,
2013-02-26 00:21:00,36.0,25.0,30.23,SW,220,12.0,-999.0,64,-99.99,,,-99.99,,2013-02-26 08:21:00,
2013-02-26 00:31:00,36.0,25.0,30.23,SW,220,12.0,-999.0,64,-99.99,,,-99.99,,2013-02-26 08:31:00,
2013-02-26 00:41:00,36.0,25.0,30.23,SW,220,12.0,-999.0,64,-99.99,,,-99.99,,2013-02-26 08:41:00,
2013-02-26 01:01:00,36.0,25.0,30.24,SW,230,5.0,-999.0,64,-99.99,,,-99.99,,2013-02-26 09:01:00,
2013-02-26 01:11:00,36.0,25.0,30.24,SW,230,5.0,-999.0,64,-99.99,,,-99.99,,2013-02-26 09:11:00,
2013-02-26 01:21:00,34.0,25.0,30.25,North,0,0.0,-999.0,69,-99.99,,,-99.99,,2013-02-26 09:21:00,
2013-02-26 01:31:00,34.0,25.0,30.25,North,0,0.0,-999.0,69,-99.99,,,-99.99,,2013-02-26 09:31:00,
2013-02-26 01:43:00,34.0,25.0,30.25,North,0,0.0,-999.0,69,-99.99,,,-99.99,,2013-02-26 09:43:00,
2013-02-26 01:50:00,32.0,25.0,30.26,WSW,250,5.0,-999.0,74,-99.99,,,-99.99,,2013-02-26 09:50:00,
2013-02-26 01:51:00,34.0,25.0,30.26,WSW,250,3.0,-999.0,69,-99.99,,,-99.99,,2013-02-26 09:51:00,
2013-02-26 02:01:00,34.0,25.0,30.26,WSW,250,3.0,-999.0,69,-99.99,,,-99.99,,2013-02-26 10:01:00,
2013-02-26 02:11:00,34.0,25.0,30.26,WSW,250,3.0,-999.0,69,-99.99,,,-99.99,,2013-02-26 10:11:00,
2013-02-26 02:21:00,32.0,25.0,30.26,WSW,250,5.0,-999.0,74,-99.99,,,-99.99,,2013-02-26 10:21:00,
2013-02-26 02:31:00,32.0,25.0,30.26,WSW,250,5.0,-999.0,74,-99.99,,,-99.99,,2013-02-26 10:31:00,
2013-02-26 02:41:00,32.0,25.0,30.26,WSW,250,5.0,-999.0,74,-99.99,,,-99.99,,2013-02-26 10:41:00,
2013-02-26 03:01:00,32.0,25.0,30.27,SW,230,6.0,-999.0,74,-99.99,,,-99.99,,2013-02-26 11:01:00,
2013-02-26 03:11:00,32.0,25.0,30.27,SW,230,6.0,-999.0,74,-99.99,,,-99.99,,2013-02-26 11:11:00,
2013-02-26 03:21:00,34.0,25.0,30.27,SW,220,5.0,-999.0,69,-99.99,,,-99.99,,2013-02-26 11:21:00,
2013-02-26 03:31:00,34.0,25.0,30.27,SW,220,5.0,-999.0,69,-99.99,,,-99.99,,2013-02-26 11:31:00,
2013-02-26 03:41:00,34.0,25.0,30.27,SW,220,5.0,-999.0,69,-99.99,,,-99.99,,2013-02-26 11:41:00,
2013-02-26 03:52:00,34.0,25.0,30.28,WSW,240,6.0,-999.0,69,-99.99,,,-99.99,,2013-02-26 11:52:00,
2013-02-26 04:01:00,34.0,25.0,30.28,WSW,240,6.0,-999.0,69,-99.99,,,-99.99,,2013-02-26 12:01:00,
2013-02-26 04:11:00,34.0,25.0,30.28,WSW,240,6.0,-999.0,69,-99.99,,,-99.99,,2013-02-26 12:11:00,
2013-02-26 04:22:00,34.0,27.0,30.28,SW,220,8.0,-999.0,74,-99.99,,,-99.99,,2013-02-26 12:22:00,
2013-02-26 04:32:00,34.0,27.0,30.28,SW,220,8.0,-999.0,74,-99.99,,,-99.99,,2013-02-26 12:32:00,
2013-02-26 04:42:00,34.0,27.0,30.28,SW,220,8.0,-999.0,74,-99.99,,,-99.99,,2013-02-26 12:42:00,
2013-02-26 04:52:00,34.0,25.0,30.29,SW,230,6.0,-999.0,69,-99.99,,,-99.99,,2013-02-26 12:52:00,
2013-02-26 05:01:00,34.0,25.0,30.29,SW,230,6.0,-999.0,69,-99.99,,,-99.99,,2013-02-26 13:01:00,
2013-02-26 05:11:00,34.0,25.0,30.29,SW,230,6.0,-999.0,69,-99.99,,,-99.99,,2013-02-26 13:11:00,
2013-02-26 05:21:00,32.0,25.0,30.30,WSW,240,7.0,-999.0,74,-99.99,,,-99.99,,2013-02-26 13:21:00,
2013-02-26 05:31:00,32.0,25.0,30.30,WSW,240,7.0,-999.0,74,-99.99,,,-99.99,,2013-02-26 13:31:00,
2013-02-26 05:42:00,32.0,25.0,30.30,WSW,240,7.0,-999.0,74,-99.99,,,-99.99,,2013-02-26 13:42:00,
2013-02-26 05:50:00,32.0,25.0,30.31,North,0,0.0,-999.0,74,-99.99,,,-99.99,,2013-02-26 13:50:00,
2013-02-26 05:51:00,32.0,27.0,30.31,SW,220,3.0,-999.0,80,-99.99,,,-99.99,,2013-02-26 13:51:00,
2013-02-26 06:01:00,32.0,27.0,30.31,SW,220,3.0,-999.0,80,-99.99,,,-99.99,,2013-02-26 14:01:00,
2013-02-26 06:11:00,32.0,27.0,30.31,SW,220,3.0,-999.0,80,-99.99,,,-99.99,,2013-02-26 14:11:00,
2013-02-26 06:21:00,32.0,25.0,30.31,North,0,0.0,-999.0,74,-99.99,,,-99.99,,2013-02-26 14:21:00,
2013-02-26 06:31:00,32.0,25.0,30.31,North,0,0.0,-999.0,74,-99.99,,,-99.99,,2013-02-26 14:31:00,
2013-02-26 06:42:00,32.0,25.0,30.31,North,0,0.0,-999.0,74,-99.99,,,-99.99,,2013-02-26 14:42:00,
2013-02-26 06:50:00,32.0,25.0,30.32,SSW,200,6.0,-999.0,74,-99.99,,,-99.99,,2013-02-26 14:50:00,
2013-02-26 07:02:00,28.0,25.0,30.32,North,0,0.0,-999.0,86,-99.99,,,-99.99,,2013-02-26 15:02:00,
2013-02-26 07:11:00,28.0,25.0,30.32,North,0,0.0,-999.0,86,-99.99,,,-99.99,,2013-02-26 15:11:00,
2013-02-26 07:21:00,32.0,25.0,30.32,SSW,200,6.0,-999.0,74,-99.99,,,-99.99,,2013-02-26 15:21:00,
2013-02-26 07:32:00,32.0,25.0,30.32,SSW,200,6.0,-999.0,74,-99.99,,,-99.99,,2013-02-26 15:32:00,
2013-02-26 07:41:00,32.0,25.0,30.32,SSW,200,6.0,-999.0,74,-99.99,,,-99.99,,2013-02-26 15:41:00,
2013-02-26 07:50:00,34.0,27.0,30.34,North,0,0.0,-999.0,74,-99.99,,,-99.99,,2013-02-26 15:50:00,
2013-02-26 08:01:00,34.0,25.0,30.33,SSW,210,5.0,-999.0,69,-99.99,,,-99.99,,2013-02-26 16:01:00,
2013-02-26 08:11:00,34.0,25.0,30.33,SSW,210,5.0,-999.0,69,-99.99,,,-99.99,,2013-02-26 16:11:00,
2013-02-26 08:20:00,36.0,28.0,30.35,North,0,0.0,-999.0,74,-99.99,,,-99.99,,2013-02-26 16:20:00,
2013-02-26 08:22:00,34.0,27.0,30.34,North,0,0.0,-999.0,74,-99.99,,,-99.99,,2013-02-26 16:22:00,
2013-02-26 08:31:00,34.0,27.0,30.34,North,0,0.0,-999.0,74,-99.99,,,-99.99,,2013-02-26 16:31:00,
2013-02-26 08:42:00,34.0,27.0,30.34,North,0,0.0,-999.0,74,-99.99,,,-99.99,,2013-02-26 16:42:00,
2013-02-26 09:11:00,36.0,28.0,30.35,North,0,0.0,-999.0,74,-99.99,,,-99.99,,2013-02-26 17:11:00,
2013-02-26 09:20:00,43.0,28.0,30.36,SSW,210,10.0,-999.0,56,-99.99,,,-99.99,,2013-02-26 17:20:00,
2013-02-26 10:01:00,43.0,28.0,30.36,SSW,210,10.0,-999.0,56,-99.99,,,-99.99,,2013-02-26 18:01:00,
2013-02-26 10:12:00,43.0,28.0,30.36,SSW,210,10.0,-999.0,56,-99.99,,,-99.99,,2013-02-26 18:12:00,
2013-02-26 11:22:00,48.0,23.0,30.34,South,180,6.0,-999.0,36,-99.99,,,-99.99,,2013-02-26 19:22:00,
2013-02-26 11:31:00,48.0,23.0,30.34,South,180,6.0,-999.0,36,-99.99,,,-99.99,,2013-02-26 19:31:00,
2013-02-26 11:41:00,48.0,23.0,30.34,South,180,6.0,-999.0,36,-99.99,,,-99.99,,2013-02-26 19:41:00,
2013-02-26 11:50:00,48.0,28.0,30.34,South,190,5.0,-999.0,46,-99.99,,,-99.99,,2013-02-26 19:50:00,
2013-02-26 11:51:00,48.0,27.0,30.34,South,190,6.0,-999.0,42,-99.99,,,-99.99,,2013-02-26 19:51:00,
2013-02-26 12:01:00,48.0,27.0,30.34,South,190,6.0,-999.0,42,-99.99,,,-99.99,,2013-02-26 20:01:00,
2013-02-26 12:11:00,48.0,27.0,30.34,South,190,6.0,-999.0,42,-99.99,,,-99.99,,2013-02-26 20:11:00,
2013-02-26 12:21:00,48.0,28.0,30.34,South,190,5.0,-999.0,46,-99.99,,,-99.99,,2013-02-26 20:21:00,
2013-02-26 12:31:00,48.0,28.0,30.34,South,190,5.0,-999.0,46,-99.99,,,-99.99,,2013-02-26 20:31:00,
2013-02-26 12:41:00,48.0,28.0,30.34,South,190,5.0,-999.0,46,-99.99,,,-99.99,,2013-02-26 20:41:00,
2013-02-26 12:50:00,50.0,25.0,30.31,SSE,160,12.0,-999.0,37,-99.99,,,-99.99,,2013-02-26 20:50:00,
2013-02-26 13:21:00,50.0,25.0,30.31,SSE,160,12.0,-999.0,37,-99.99,,,-99.99,,2013-02-26 21:21:00,
2013-02-26 13:31:00,50.0,25.0,30.31,SSE,160,12.0,-999.0,37,-99.99,,,-99.99,,2013-02-26 21:31:00,
2013-02-26 13:41:00,50.0,25.0,30.31,SSE,160,12.0,-999.0,37,-99.99,,,-99.99,,2013-02-26 21:41:00,
2013-02-26 14:01:00,50.0,25.0,30.30,South,180,13.0,16.0,37,-99.99,,,-99.99,,2013-02-26 22:01:00,
2013-02-26 14:11:00,50.0,25.0,30.30,South,180,13.0,16.0,37,-99.99,,,-99.99,,2013-02-26 22:11:00,
2013-02-26 14:20:00,50.0,27.0,30.29,SSW,200,5.0,-999.0,39,-99.99,,,-99.99,,2013-02-26 22:20:00,
2013-02-26 14:21:00,50.0,25.0,30.29,SW,220,12.0,-999.0,37,-99.99,,,-99.99,,2013-02-26 22:21:00,
2013-02-26 14:31:00,50.0,25.0,30.29,SW,220,12.0,-999.0,37,-99.99,,,-99.99,,2013-02-26 22:31:00,
2013-02-26 14:41:00,50.0,25.0,30.29,SW,220,12.0,-999.0,37,-99.99,,,-99.99,,2013-02-26 22:41:00,
2013-02-26 14:51:00,50.0,27.0,30.29,SSW,200,5.0,-999.0,39,-99.99,,,-99.99,,2013-02-26 22:51:00,
2013-02-26 15:01:00,50.0,27.0,30.29,SSW,200,5.0,-999.0,39,-99.99,,,-99.99,,2013-02-26 23:01:00,
2013-02-26 15:11:00,50.0,27.0,30.29,SSW,200,5.0,-999.0,39,-99.99,,,-99.99,,2013-02-26 23:11:00,
2013-02-26 15:31:00,50.0,27.0,30.28,South,190,9.0,-999.0,39,-99.99,,,-99.99,,2013-02-26 23:31:00,
2013-02-26 15:41:00,50.0,27.0,30.28,South,190,9.0,-999.0,39,-99.99,,,-99.99,,2013-02-26 23:41:00,
2013-02-26 15:50:00,50.0,25.0,30.27,South,180,12.0,-999.0,37,-99.99,,,-99.99,,2013-02-26 23:50:00,
2013-02-26 15:52:00,50.0,27.0,30.28,South,190,8.0,-999.0,39,-99.99,,,-99.99,,2013-02-26 23:52:00,
2013-02-26 16:01:00,50.0,27.0,30.28,South,190,8.0,-999.0,39,-99.99,,,-99.99,,2013-02-27 00:01:00,
2013-02-26 16:11:00,50.0,27.0,30.28,South,190,8.0,-999.0,39,-99.99,,,-99.99,,2013-02-27 00:11:00,
2013-02-26 16:21:00,50.0,25.0,30.27,South,180,12.0,-999.0,37,-99.99,,,-99.99,,2013-02-27 00:21:00,
2013-02-26 16:31:00,50.0,25.0,30.27,South,180,12.0,-999.0,37,-99.99,,,-99.99,,2013-02-27 00:31:00,
2013-02-26 16:41:00,50.0,25.0,30.27,South,180,12.0,-999.0,37,-99.99,,,-99.99,,2013-02-27 00:41:00,
2013-02-26 17:01:00,50.0,25.0,30.27,South,190,9.0,-999.0,37,-99.99,,,-99.99,,2013-02-27 01:01:00,
2013-02-26 17:11:00,50.0,25.0,30.27,South,190,9.0,-999.0,37,-99.99,,,-99.99,,2013-02-27 01:11:00,
2013-02-26 17:21:00,50.0,27.0,30.27,South,170,6.0,-999.0,39,-99.99,,,-99.99,,2013-02-27 01:21:00,
2013-02-26 17:31:00,50.0,27.0,30.27,South,170,6.0,-999.0,39,-99.99,,,-99.99,,2013-02-27 01:31:00,
2013-02-26 17:41:00,50.0,27.0,30.27,South,170,6.0,-999.0,39,-99.99,,,-99.99,,2013-02-27 01:41:00,
2013-02-26 17:50:00,48.0,27.0,30.25,SE,140,5.0,-999.0,42,-99.99,,,-99.99,,2013-02-27 01:50:00,
2013-02-26 17:51:00,48.0,25.0,30.26,SSE,150,6.0,-999.0,39,-99.99,,,-99.99,,2013-02-27 01:51:00,
2013-02-26 18:01:00,48.0,25.0,30.26,SSE,150,6.0,-999.0,39,-99.99,,,-99.99,,2013-02-27 02:01:00,
2013-02-26 18:13:00,48.0,25.0,30.26,SSE,150,6.0,-999.0,39,-99.99,,,-99.99,,2013-02-27 02:13:00,
2013-02-26 18:22:00,48.0,27.0,30.25,SE,140,5.0,-999.0,42,-99.99,,,-99.99,,2013-02-27 02:22:00,
2013-02-26 18:32:00,48.0,27.0,30.25,SE,140,5.0,-999.0,42,-99.99,,,-99.99,,2013-02-27 02:32:00,
2013-02-26 18:41:00,48.0,27.0,30.25,SE,140,5.0,-999.0,42,-99.99,,,-99.99,,2013-02-27 02:41:00,
2013-02-26 19:01:00,45.0,27.0,30.25,SE,130,5.0,-999.0,48,-99.99,,,-99.99,,2013-02-27 03:01:00,
2013-02-26 19:11:00,45.0,27.0,30.25,SE,130,5.0,-999.0,48,-99.99,,,-99.99,,2013-02-27 03:11:00,
2013-02-26 19:21:00,45.0,27.0,30.25,SE,140,6.0,-999.0,48,-99.99,,,-99.99,,2013-02-27 03:21:00,
2013-02-26 19:32:00,45.0,27.0,30.25,SE,140,6.0,-999.0,48,-99.99,,,-99.99,,2013-02-27 03:32:00,
2013-02-26 19:41:00,45.0,27.0,30.25,SE,140,6.0,-999.0,48,-99.99,,,-99.99,,2013-02-27 03:41:00,
2013-02-26 19:51:00,45.0,27.0,30.24,SE,140,5.0,-999.0,48,-99.99,,,-99.99,,2013-02-27 03:51:00,
2013-02-26 20:01:00,45.0,27.0,30.24,SE,140,5.0,-999.0,48,-99.99,,,-99.99,,2013-02-27 04:01:00,
2013-02-26 20:11:00,45.0,27.0,30.24,SE,140,5.0,-999.0,48,-99.99,,,-99.99,,2013-02-27 04:11:00,
2013-02-26 20:21:00,43.0,27.0,30.24,North,0,0.0,-999.0,52,-99.99,,,-99.99,,2013-02-27 04:21:00,
2013-02-26 20:32:00,43.0,27.0,30.24,North,0,0.0,-999.0,52,-99.99,,,-99.99,,2013-02-27 04:32:00,
2013-02-26 20:41:00,43.0,27.0,30.24,North,0,0.0,-999.0,52,-99.99,,,-99.99,,2013-02-27 04:41:00,
2013-02-26 20:50:00,36.0,27.0,30.24,North,0,0.0,-999.0,69,-99.99,,,-99.99,,2013-02-27 04:50:00,
2013-02-26 20:51:00,41.0,27.0,30.24,South,180,6.0,-999.0,56,-99.99,,,-99.99,,2013-02-27 04:51:00,
2013-02-26 21:01:00,41.0,27.0,30.24,South,180,6.0,-999.0,56,-99.99,,,-99.99,,2013-02-27 05:01:00,
2013-02-26 21:11:00,41.0,27.0,30.24,South,180,6.0,-999.0,56,-99.99,,,-99.99,,2013-02-27 05:11:00,
2013-02-26 21:22:00,36.0,27.0,30.24,North,0,0.0,-999.0,69,-99.99,,,-99.99,,2013-02-27 05:22:00,
2013-02-26 21:32:00,36.0,27.0,30.24,North,0,0.0,-999.0,69,-99.99,,,-99.99,,2013-02-27 05:32:00,
2013-02-26 21:41:00,36.0,27.0,30.24,North,0,0.0,-999.0,69,-99.99,,,-99.99,,2013-02-27 05:41:00,
2013-02-26 21:50:00,36.0,27.0,30.23,North,0,0.0,-999.0,69,-99.99,,,-99.99,,2013-02-27 05:50:00,
2013-02-26 22:21:00,36.0,27.0,30.23,North,0,0.0,-999.0,69,-99.99,,,-99.99,,2013-02-27 06:21:00,
2013-02-26 22:32:00,36.0,27.0,30.23,North,0,0.0,-999.0,69,-99.99,,,-99.99,,2013-02-27 06:32:00,
2013-02-26 22:41:00,36.0,27.0,30.23,North,0,0.0,-999.0,69,-99.99,,,-99.99,,2013-02-27 06:41:00,
2013-02-26 22:50:00,37.0,28.0,30.23,ESE,110,5.0,-999.0,69,-99.99,,,-99.99,,2013-02-27 06:50:00,
2013-02-26 23:01:00,34.0,28.0,30.24,NNE,20,6.0,-999.0,80,-99.99,,,-99.99,,2013-02-27 07:01:00,
2013-02-26 23:12:00,34.0,28.0,30.24,NNE,20,6.0,-999.0,80,-99.99,,,-99.99,,2013-02-27 07:12:00,
2013-02-26 23:21:00,37.0,28.0,30.23,ESE,110,5.0,-999.0,69,-99.99,,,-99.99,,2013-02-27 07:21:00,
2013-02-26 23:31:00,37.0,28.0,30.23,ESE,110,5.0,-999.0,69,-99.99,,,-99.99,,2013-02-27 07:31:00,
2013-02-26 23:41:00,37.0,28.0,30.23,ESE,110,5.0,-999.0,69,-99.99,,,-99.99,,2013-02-27 07:41:00,